[[{"header":{"parameterUnit":"m.s-1","parameterCategory":1,"la1":30.2991,"la2":30.254,"lo1":-89.0895,"lo2":-89.0444,"dy":0.0017,"dx":0.0017,"nx":28,"ny":28,"refTime":"2025-11-17T09:00:00:Z","depth":0,"parameterNumber":2,"parameterNumberName":"U-component_of_WINDS"},"data":[0,0,0,0,0,0,0,0,0,0,0,0,0,0,0,0,0,0,0,0,0,0,0,0,0,0,0,0,0,0,0,0,0,0,0,0,0,0,0,0,0,0,0,0,0,0,0,0,0,0,0,0,0,0,0,0,0,0,-0.7405,-0.7404,0,-0.7371,-0.7371,-0.7371,-0.7359,-0.736,-0.736,-0.736,-0.7324,-0.7323,-0.7322,0,0,0,0,0,0,0,0,0,0,0,0,0,-0.7457,-0.7456,-0.7405,-0.7404,-0.7404,-0.7372,-0.7371,-0.7371,-0.7359,-0.736,-0.736,-0.736,-0.7324,-0.7323,-0.7322,0,0,0,0,0,0,0,0,0,0,0,0,0,-0.743,-0.7456,-0.7405,-0.7394,-0.7393,-0.7372,-0.7371,-0.737,-0.7359,-0.736,-0.736,-0.736,-0.7325,-0.7323,-0.7322,-0.7307,0,0,-0.7317,-0.7316,0,0,0,0,0,0,0,0,-0.7432,-0.7428,-0.7396,-0.7395,-0.7394,-0.737,-0.7376,-0.7349,-0.7359,-0.7372,-0.736,-0.736,-0.7339,-0.7336,-0.7329,-0.7306,-0.7304,-0.7317,-0.7316,-0.7315,-0.7314,0,0,0,0,0,0,0,-0.7433,-0.7429,-0.7392,-0.7396,-0.7394,-0.7391,-0.7387,-0.7371,-0.7355,-0.7371,-0.737,-0.7366,-0.7338,-0.7331,-0.7329,-0.7304,-0.7317,-0.7315,-0.7314,-0.7313,-0.7266,-0.7266,0,0,0,0,0,0,-0.7437,-0.7431,-0.7393,-0.7391,-0.7414,-0.739,-0.7386,-0.7377,-0.7355,-0.7352,-0.7366,-0.7366,-0.7334,-0.733,-0.7327,-0.7309,-0.7315,-0.7313,-0.7312,-0.7266,-0.7266,-0.7266,0,0,0,0,0,0,-0.7438,-0.7434,-0.7394,-0.7411,-0.7405,-0.7389,-0.7379,-0.7376,-0.7369,-0.7351,-0.7348,-0.7362,-0.7334,-0.7329,-0.7312,-0.7307,-0.7313,-0.7311,-0.7267,-0.7266,-0.7266,-0.7271,0,0,0,0,0,0,-0.744,-0.7434,-0.7429,-0.7411,-0.7404,-0.738,-0.7379,-0.7376,-0.7367,-0.7366,-0.7346,-0.7343,-0.7334,-0.7315,-0.7311,-0.7305,-0.731,-0.7267,-0.7266,-0.7266,-0.7272,-0.7271,-0.7271,0,0,0,0,0,-0.7442,-0.7432,-0.7429,-0.7424,-0.7398,-0.738,-0.7376,-0.7366,-0.7366,-0.7361,-0.7349,-0.7344,-0.7309,-0.7313,-0.7308,-0.7302,-0.7267,-0.7267,-0.7266,-0.7272,-0.7271,-0.7271,0,0,0,0,0,0,-0.745,-0.7429,-0.7426,-0.741,-0.7397,-0.7378,-0.7371,-0.7366,-0.7352,-0.7352,-0.7338,-0.7334,-0.7318,-0.7308,-0.7314,-0.7287,-0.7288,-0.7286,-0.7294,-0.7293,-0.7293,-0.7295,-0.7309,0,0,0,0,0,-0.745,-0.7438,-0.742,-0.7408,-0.7401,-0.7387,-0.7379,-0.7372,-0.7358,-0.7352,-0.7339,-0.7325,-0.7311,-0.7301,-0.7287,-0.727,-0.7266,-0.7264,-0.7263,-0.7263,-0.7262,-0.7251,-0.725,-0.7263,-0.7263,-0.7263,0,0,-0.7449,-0.7437,-0.743,-0.7409,-0.7398,-0.7385,-0.7382,-0.7369,-0.7359,-0.735,-0.7333,-0.7323,-0.7306,-0.7289,-0.7281,-0.7281,-0.7257,-0.7262,-0.7262,-0.7261,-0.7251,-0.7249,-0.7248,-0.7263,-0.7263,-0.7263,0,0,-0.7442,-0.7431,-0.7419,-0.7409,-0.7393,-0.7383,-0.738,-0.7362,-0.7356,-0.7339,-0.7331,-0.7319,-0.7295,-0.7283,-0.7274,-0.7262,-0.7257,-0.7258,-0.7256,-0.7246,-0.7245,-0.7244,-0.7239,-0.7237,-0.7257,-0.7257,-0.7257,0,-0.7443,-0.7424,-0.7414,-0.7401,-0.7391,-0.7383,-0.7371,-0.736,-0.734,-0.7334,-0.7334,-0.7303,-0.7291,-0.7271,-0.7268,-0.7261,-0.7257,-0.726,-0.7246,-0.7245,-0.7244,-0.7239,-0.7237,-0.7257,-0.7257,-0.7257,-0.7257,0,-0.7426,-0.7413,-0.7405,-0.7386,-0.7376,-0.7363,-0.7351,-0.7342,-0.7336,-0.7326,-0.7309,-0.7294,-0.7277,-0.7272,-0.7265,-0.725,-0.7251,-0.7249,-0.7249,-0.7243,-0.7238,-0.7236,-0.7257,-0.7257,-0.7257,-0.7257,0,0,-0.7422,-0.7398,-0.7395,-0.7386,-0.7368,-0.7357,-0.7344,-0.7327,-0.732,-0.7306,-0.7294,-0.7274,-0.7272,-0.7261,-0.7254,-0.7245,-0.7236,-0.7244,-0.7244,-0.7242,-0.7217,-0.7218,-0.7216,-0.7233,-0.7232,-0.7232,-0.7219,0,-0.7411,-0.7388,-0.7378,-0.7359,-0.7346,-0.7338,-0.7326,-0.7314,-0.7304,-0.7292,-0.7281,-0.7267,-0.7266,-0.7259,-0.7251,-0.7239,-0.7231,-0.724,-0.722,-0.722,-0.7224,-0.7214,-0.7215,-0.7203,-0.7217,-0.7216,-0.7216,0,-0.7396,-0.7382,-0.7362,-0.7345,-0.7339,-0.7329,-0.7313,-0.7301,-0.7286,-0.728,-0.7269,-0.7262,-0.7247,-0.7249,-0.7227,-0.7234,-0.7225,-0.7218,-0.7218,-0.7215,-0.7217,-0.721,-0.7199,-0.7197,-0.7213,-0.7213,-0.7214,0,-0.7394,-0.7371,-0.7356,-0.7348,-0.7328,-0.7321,-0.7312,-0.7298,-0.7288,-0.7274,-0.7268,-0.7252,-0.7243,-0.7231,-0.7219,-0.7222,-0.7199,-0.72,-0.7192,-0.7193,-0.7187,-0.7187,-0.7174,-0.7183,-0.7183,-0.7183,-0.7183,0,-0.7382,-0.737,-0.7354,-0.7345,-0.7331,-0.732,-0.7306,-0.7296,-0.7283,-0.7271,-0.7263,-0.7252,-0.7238,-0.7225,-0.7216,-0.7199,-0.7195,-0.7189,-0.7187,-0.7189,-0.719,-0.7183,-0.7183,-0.7183,-0.7183,-0.7183,-0.7183,0,-0.7377,-0.7367,-0.7349,-0.7332,-0.7327,-0.7318,-0.7302,-0.7292,-0.7283,-0.7268,-0.7264,-0.7249,-0.7233,-0.722,-0.7199,-0.7193,-0.7175,-0.7173,-0.718,-0.7179,-0.7172,-0.7172,-0.7153,-0.7149,-0.7162,-0.7162,-0.7162,0,-0.7371,-0.7361,-0.7343,-0.7335,-0.7326,-0.7313,-0.7303,-0.7292,-0.7282,-0.7265,-0.7257,-0.724,-0.7226,-0.7201,-0.7188,-0.7172,-0.7168,-0.7163,-0.7166,-0.7169,-0.7167,-0.7168,-0.7166,-0.7162,-0.7162,-0.7162,-0.7162,0,-0.7359,-0.7354,-0.7341,-0.7327,-0.7316,-0.7303,-0.729,-0.7284,-0.727,-0.726,-0.7244,-0.7233,-0.7212,-0.7195,-0.7178,-0.7168,-0.7162,-0.7161,-0.7158,-0.716,-0.7165,-0.7161,-0.7178,-0.7161,-0.7161,-0.7161,-0.7161,-0.7161,-0.7352,-0.7343,-0.7329,-0.7315,-0.7304,-0.7293,-0.7282,-0.7272,-0.7259,-0.7241,-0.7235,-0.7218,-0.7203,-0.7179,-0.7169,-0.7155,-0.7155,-0.7151,-0.715,-0.7149,-0.7149,-0.7168,-0.7152,-0.7152,-0.7152,-0.7152,-0.7152,0,-0.734,-0.7331,-0.7318,-0.73,-0.7289,-0.7286,-0.7271,-0.7262,-0.7247,-0.7234,-0.7221,-0.7202,-0.7186,-0.7172,-0.7155,-0.7146,-0.7143,-0.7142,-0.7142,-0.714,-0.715,-0.7154,-0.7145,-0.7145,-0.7145,-0.7145,-0.7145,-0.7145,-0.7332,-0.7316,-0.731,-0.7288,-0.7279,-0.7263,-0.7255,-0.7244,-0.7233,-0.7213,-0.7199,-0.7191,-0.7177,-0.7159,-0.7143,-0.714,-0.7133,-0.7133,-0.7128,-0.7138,-0.7139,-0.714,-0.7143,-0.7132,-0.7132,-0.7118,-0.7118,-0.7118]},{"header":{"parameterUnit":"m.s-1","parameterCategory":1,"la1":30.2991,"la2":30.254,"lo1":-89.0895,"lo2":-89.0444,"dy":0.0017,"dx":0.0017,"nx":28,"ny":28,"refTime":"2025-11-17T09:00:00:Z","depth":0,"parameterNumber":3,"parameterNumberName":"V-component_of_WINDS"},"data":[0,0,0,0,0,0,0,0,0,0,0,0,0,0,0,0,0,0,0,0,0,0,0,0,0,0,0,0,0,0,0,0,0,0,0,0,0,0,0,0,0,0,0,0,0,0,0,0,0,0,0,0,0,0,0,0,0,0,-1.0311,-1.0312,0,-1.0379,-1.038,-1.038,-1.0392,-1.0391,-1.0391,-1.039,-1.0458,-1.046,-1.0462,0,0,0,0,0,0,0,0,0,0,0,0,0,-1.0189,-1.0192,-1.0311,-1.0312,-1.0313,-1.0379,-1.038,-1.0381,-1.0392,-1.0391,-1.0391,-1.039,-1.0457,-1.046,-1.0463,0,0,0,0,0,0,0,0,0,0,0,0,0,-1.0248,-1.0192,-1.0311,-1.0326,-1.0328,-1.0379,-1.038,-1.0381,-1.0392,-1.0391,-1.0391,-1.039,-1.0456,-1.0459,-1.0463,-1.0502,0,0,-1.0474,-1.0475,0,0,0,0,0,0,0,0,-1.0245,-1.0253,-1.0323,-1.0325,-1.0328,-1.0376,-1.0362,-1.0421,-1.0392,-1.0368,-1.039,-1.0389,-1.0431,-1.0437,-1.0451,-1.0505,-1.0508,-1.0474,-1.0476,-1.0478,-1.0479,0,0,0,0,0,0,0,-1.0241,-1.025,-1.0338,-1.0324,-1.0327,-1.0329,-1.0337,-1.0373,-1.0403,-1.037,-1.0371,-1.0379,-1.0432,-1.0448,-1.0453,-1.0509,-1.0474,-1.0477,-1.0479,-1.048,-1.0598,-1.0599,0,0,0,0,0,0,-1.0234,-1.0246,-1.0336,-1.034,-1.0283,-1.0332,-1.0341,-1.0361,-1.0403,-1.0409,-1.038,-1.0379,-1.0442,-1.0449,-1.0455,-1.0505,-1.0478,-1.0481,-1.0483,-1.0597,-1.0599,-1.06,0,0,0,0,0,0,-1.0231,-1.0242,-1.0333,-1.0293,-1.0305,-1.0335,-1.0359,-1.0363,-1.0379,-1.0411,-1.0416,-1.039,-1.0442,-1.045,-1.049,-1.0507,-1.0482,-1.0486,-1.0596,-1.0598,-1.0599,-1.0603,0,0,0,0,0,0,-1.0228,-1.0241,-1.0256,-1.0294,-1.0307,-1.0368,-1.036,-1.0365,-1.0385,-1.0385,-1.0422,-1.0427,-1.0442,-1.0485,-1.0494,-1.0511,-1.0488,-1.0595,-1.0597,-1.0599,-1.0601,-1.0604,-1.0607,0,0,0,0,0,-1.0224,-1.0254,-1.0257,-1.0268,-1.0327,-1.0368,-1.0376,-1.0393,-1.0386,-1.0402,-1.0422,-1.0426,-1.0503,-1.0489,-1.0499,-1.0518,-1.0594,-1.0596,-1.0599,-1.06,-1.0604,-1.0607,0,0,0,0,0,0,-1.0217,-1.0259,-1.0263,-1.0307,-1.0334,-1.037,-1.0391,-1.0396,-1.0426,-1.0425,-1.0444,-1.0452,-1.0491,-1.0508,-1.0492,-1.0558,-1.0548,-1.0553,-1.0546,-1.055,-1.0552,-1.0548,-1.0491,0,0,0,0,0,-1.0221,-1.0252,-1.0286,-1.0321,-1.0335,-1.036,-1.0379,-1.039,-1.0419,-1.043,-1.0453,-1.048,-1.0511,-1.0531,-1.0561,-1.0603,-1.0612,-1.0621,-1.0624,-1.0626,-1.063,-1.0655,-1.066,-1.0607,-1.0607,-1.0607,0,0,-1.0229,-1.0256,-1.0274,-1.0321,-1.0343,-1.0374,-1.037,-1.0403,-1.0426,-1.0435,-1.0475,-1.0492,-1.0524,-1.0566,-1.0585,-1.0581,-1.0646,-1.0629,-1.063,-1.0633,-1.0658,-1.0662,-1.0667,-1.0609,-1.0609,-1.0609,0,0,-1.026,-1.0283,-1.0315,-1.0338,-1.0372,-1.0389,-1.0397,-1.0432,-1.0445,-1.0485,-1.0493,-1.052,-1.0572,-1.0595,-1.0613,-1.0652,-1.0657,-1.0661,-1.0676,-1.07,-1.0704,-1.0708,-1.0723,-1.0728,-1.0665,-1.0665,-1.0665,0,-1.0266,-1.0313,-1.0331,-1.0364,-1.0385,-1.0394,-1.0427,-1.0448,-1.049,-1.0504,-1.0499,-1.0565,-1.0587,-1.0635,-1.0645,-1.0658,-1.0668,-1.0658,-1.0702,-1.0706,-1.071,-1.0725,-1.073,-1.0665,-1.0665,-1.0665,-1.0665,0,-1.0319,-1.0352,-1.0374,-1.0415,-1.0438,-1.0471,-1.0493,-1.0514,-1.0522,-1.054,-1.0581,-1.0607,-1.0643,-1.0655,-1.0663,-1.0704,-1.0701,-1.0698,-1.0689,-1.0715,-1.073,-1.0735,-1.0666,-1.0666,-1.0666,-1.0666,0,0,-1.0349,-1.04,-1.0408,-1.0427,-1.0466,-1.0491,-1.0524,-1.056,-1.0578,-1.0606,-1.0635,-1.0678,-1.0677,-1.0698,-1.0708,-1.0729,-1.076,-1.0725,-1.0726,-1.0732,-1.0808,-1.0811,-1.0817,-1.0763,-1.0764,-1.0765,-1.0806,0,-1.0386,-1.0446,-1.0463,-1.0514,-1.0544,-1.0554,-1.0583,-1.0609,-1.0626,-1.0654,-1.0672,-1.0704,-1.0698,-1.0711,-1.0732,-1.0752,-1.0776,-1.0749,-1.079,-1.0791,-1.0784,-1.0825,-1.0828,-1.0865,-1.0812,-1.0813,-1.0813,0,-1.0437,-1.0467,-1.0522,-1.0557,-1.057,-1.0596,-1.0631,-1.0657,-1.0687,-1.0698,-1.0721,-1.073,-1.0765,-1.0752,-1.08,-1.0782,-1.0799,-1.0811,-1.0813,-1.0819,-1.0805,-1.0833,-1.0878,-1.0884,-1.0822,-1.0821,-1.0821,0,-1.0455,-1.0509,-1.0549,-1.0565,-1.0607,-1.0625,-1.0643,-1.0672,-1.0693,-1.0723,-1.0736,-1.0769,-1.0788,-1.0813,-1.083,-1.0819,-1.0877,-1.0866,-1.0887,-1.0887,-1.0901,-1.09,-1.095,-1.0909,-1.0909,-1.0909,-1.0908,0,-1.0495,-1.0529,-1.0558,-1.0583,-1.062,-1.0639,-1.0675,-1.0693,-1.0719,-1.0747,-1.0757,-1.0783,-1.0804,-1.0832,-1.0846,-1.0884,-1.0892,-1.0902,-1.0905,-1.0902,-1.0901,-1.0915,-1.0913,-1.091,-1.091,-1.091,-1.0909,0,-1.0523,-1.0544,-1.0589,-1.0625,-1.0634,-1.066,-1.0691,-1.0715,-1.0732,-1.0767,-1.0777,-1.0803,-1.0837,-1.0857,-1.09,-1.0909,-1.0952,-1.0953,-1.0942,-1.0944,-1.0965,-1.0964,-1.1028,-1.1038,-1.0988,-1.0989,-1.0989,0,-1.0548,-1.0574,-1.0613,-1.0633,-1.0652,-1.0684,-1.0705,-1.0724,-1.0746,-1.0782,-1.0802,-1.0837,-1.0866,-1.0921,-1.0943,-1.0976,-1.0979,-1.1,-1.0985,-1.0981,-1.0982,-1.0981,-1.0984,-1.1003,-1.1003,-1.1004,-1.1004,0,-1.0591,-1.0601,-1.0632,-1.0667,-1.0692,-1.072,-1.0748,-1.0764,-1.0787,-1.0811,-1.0847,-1.0869,-1.0914,-1.0949,-1.0984,-1.1002,-1.1007,-1.1008,-1.1015,-1.1013,-1.1006,-1.1012,-1.0951,-1.1007,-1.1007,-1.1007,-1.1006,-1.1006,-1.062,-1.0644,-1.0675,-1.071,-1.0733,-1.0759,-1.0783,-1.0804,-1.0834,-1.0872,-1.0881,-1.0919,-1.0948,-1.0996,-1.1015,-1.1044,-1.1041,-1.1051,-1.1053,-1.1056,-1.1058,-1.1,-1.105,-1.105,-1.105,-1.105,-1.105,0,-1.0665,-1.0685,-1.0717,-1.0756,-1.0783,-1.0786,-1.0817,-1.0839,-1.0873,-1.09,-1.0929,-1.097,-1.1004,-1.1029,-1.1064,-1.1083,-1.1087,-1.1092,-1.1091,-1.1096,-1.1058,-1.1049,-1.1089,-1.1089,-1.1089,-1.1089,-1.1089,-1.1089,-1.0691,-1.0733,-1.0746,-1.0798,-1.0818,-1.0857,-1.0874,-1.0898,-1.092,-1.0966,-1.0995,-1.1011,-1.1038,-1.1075,-1.1106,-1.1112,-1.1125,-1.1131,-1.1137,-1.1102,-1.1098,-1.1094,-1.1086,-1.1133,-1.1133,-1.1173,-1.1173,-1.1174]}]]